Velovelo
Português Nederlands 日本語 中文
Español English čeština slovenčina
русский italiano polski norsk
français Deutsch svenska عربي
 
 vorige pagina
 Stuur naar een vriend
 Print dit artikel
 ---> La Fonsorbaise 2009 : Résultats du 98 km

ClassDos NomPrénom ... Cat. Cl.cTemps....
1 415 LESSMANN PASCAL F 1 2:35:54
2 401 HEMART GUILLAUME D 1 2:35:55
3 260 LEBEAU JEAN MARC F 2 2:35:55
4 251 HUERTAS FREDERIC E 1 2:35:55
5 308 CARRILLO FREDERIC E 2 2:35:55
6 321 DELMAS OLIVIER F 3 2:35:55
7 305 COSNIER VALENTIN D 2 2:35:55
8 269 BONNET JEAN LUC E 3 2:35:55
9 276 TRAVERSAZ PIERRE E 4 2:35:55
10 412 COURBET JULIEN D 3 2:35:55
11 395 MAUCOURT MATHIEU D 4 2:35:55
12 258 CHAZEAUD OLIVIER E 5 2:35:55
13 247 DORSEUIL PIERRE E 6 2:35:55
14 410 GARDEIL XAVIER E 7 2:35:55
15 207 BARON PHILIPPE D 5 2:38:12
16 287 OCHEROWITCH  STEPHANE E 8 2:38:12
17 414 SIERRA JEAN STEPHANE E 9 2:38:12
18 357 BRUGEAU PHILIPPE F 4 2:38:12
19 375 CROUX CHRISTIAN F 5 2:38:12
20 254 GAULIN DAVID F 6 2:38:12
21 252 OLLER PIERRE E 10 2:38:12
22 408 MARC CHRISTOPHE F 7 2:38:12
23 394 BELLOC FRANCISCO G 1 2:38:12
24 328 BILLIOT LAURENT F 8 2:38:12
25 398 VERGER FREDERIC F 9 2:38:12
26 348 PEREIRA FRANCISCO F 10 2:38:12
27 344 FERAY MERRYL D 6 2:38:12
28 378 LORIN LOUIS-NOEL F 11 2:38:12
29 405 DUTOUR MICHEL F 12 2:38:12
30 421 BISBAL FREDERIC E 11 2:38:12
31 338 POCHODZAY DAMIEN D 7 2:38:12
32 411 LAFLEUR BENJAMIN D 8 2:38:12
33 396 FOURNES DAVID E 12 2:38:12
34 420 GIRARDET JEAN-PIERRE F 13 2:38:12
35 343 FERAY PASCAL F 14 2:39:21
36 304 BABEN FRANCOIS E 13 2:39:21
37 342 EYCHENNE GREGORY D 9 2:39:21
38 362 GIRBAS WILFRIED E 14 2:39:21
39 314 PAILLOT CYRIL E 15 2:39:21
40 386 LAURENT MARC E 16 2:39:21
41 256 DERVYN ARNAUD E 17 2:39:21
42 259 DEJEAN ALAIN F 15 2:39:21
43 229 QUESNEL CHRISTIAN G 2 2:39:21
44 376 GASPAROTTO PIERRE G 3 2:39:21
45 303 DEGUERNEL MICHEL H 1 2:39:21
46 337 COSTES LAURENT F 16 2:39:21
47 355 BOAROLO JOSEPH F 17 2:39:21
48 327 TALLON PHILIPPE F 18 2:39:21
49 384 DELAS HERVE F 19 2:39:21
50 404 BOUSQUET ANTHONY E 18 2:39:21
51 345 DANIEAU STEPHANE E 19 2:39:21
52 200 FERRARONI JEROME E 20 2:42:15
53 240 DELRIEU NICOLAS E 21 2:42:15
54 403 BOTTAREL DIDIER F 20 2:42:15
55 409 GUTIURREZ AUGUSTIN G 4 2:42:15
56 208 FALCOU ALAIN F 21 2:42:15
57 266 CLIMENT DOMINIQUE G 5 2:42:15
58 273 GAVALDA ERIC F 22 2:42:15
59 361 CULOS PHILIPPE F 23 2:42:15
60 416 PAVY MARC F 24 2:42:15
61 282 TELLIER DIDIER F 25 2:42:15
62 418 VIZCAY ROBERT F 26 2:42:15
63 346 ROLDAN LAURENT F 27 2:42:15
64 312 FERREIRA CASEVECCHIE  CHRISTIAN E 22 2:42:15
65 373 RICHARD GILLES H 2 2:42:15
66 360 ACHTE NICOLAS F 28 2:44:12
67 372 LE PRIOL CHRISTIAN G 6 2:46:02
68 309 SAINT CRIQ SEBASTIEN E 23 2:46:02
69 330 UCHARD HERVE G 7 2:46:02
70 289 BESSON BRUNO G 8 2:46:02
71 213 VIRAC CHRISTIAN F 29 2:46:02
72 268 JONES BRUCE F 30 2:46:02
73 390 FARGES TONY E 24 2:46:02
74 236 PEYRE CHRISTOPHE E 25 2:46:02
75 332 PEREMANS YVES F 31 2:46:02
76 419 DAFFOS DAVID F 32 2:46:02
77 315 DAVID  THIERRY G 9 2:46:02
78 363 SALEMME JEAN-FRANCOIS E 26 2:46:02
79 286 CALLAC DE GASPERIS XAVIER E 27 2:49:55
80 272 SAINT SUPERY VIVIAN E 28 2:50:35
81 389 CHONE FABRICE E 29 2:51:45
82 331 PIEROT DOMINIQUE F 33 2:51:45
83 383 PUJOS JEAN G 10 2:51:45
84 324 BAUDEIGNE FABIEN E 30 2:51:45
85 293 GENCO MARC F 34 2:51:45
86 285 BOUCHER MICHEL H 3 2:51:45
87 349 CATALAN GUY E 31 2:51:45
88 270 CAZAENTRE JOEL G 11 2:51:45
89 264 MONTIEL SERGE G 12 2:51:45
90 424 MARTINEAU PHILIPPE F 35 2:51:45
91 399 VERGER MICHEL G 13 2:51:45
92 242 SEVERAN WILLIAM F 36 2:51:45
93 246 LEBOURGEOIS CLAUDE G 14 2:51:45
94 367 SAVAGNAC DIDIER G 15 2:51:45
95 369 FRANCHETTO GINO G 16 2:51:45
96 323 LARROSE GERARD F 37 2:51:45
97 407 BORDES BRUNO F 38 2:51:45
98 377 TOULOUZE PIERRE E 32 2:51:45
99 359 SICAULT GREGORY E 33 2:51:45
100 368 DAUCH XAVIER G 17 2:51:45
101 400 VERGER THIERRY F 39 2:51:45
102 392 DAL MASO FREDERIC G 18 2:51:45
103 391 ZANGHIERI SEVERINE B 1 2:51:45
104 365 MABRU PATRICK G 19 2:51:45
105 316 VORONOVAS LAURENT E 34 2:51:45
106 326 DIGNAT JEAN PHILIPPE F 40 2:51:45
107 214 BARBIER JEAN MARIE H 4 2:51:45
108 322 JOURDAN CEDRIC E 35 2:51:45
109 262 ESTEVE PIERRE G 20 2:53:23
110 279 BOUGUES JEAN LUC F 41 2:55:23
111 329 JULIA THIERRY F 42 2:55:23
112 402 HOURCASTAGNOU JEAN-APUL F 43 2:57:24
113 306 TILHAC PASCAL F 44 2:57:24
114 261 SCHEFFLER LAURENT E 36 2:57:24
115 231 DOUELLE AGNES B 2 2:57:24
116 364 RAYSSIGIUER CYRIL E 37 2:57:24
117 358 FERRE  YANNICK E 38 2:57:24
118 354 JEZEQUEL PATRICK G 21 2:57:24
119 296 JEAN-LOUIS JOSIETO E 39 2:57:24
120 224 CHERIF BAHIA  ERIC E 40 2:57:24
121 239 GISQUET FLOREN D 10 2:57:24
122 353 BELLET JEAN-LUC G 22 2:58:04
123 232 BOYER JEAN MAURICE G 23 2:59:12
124 241 BOURNIQUEL LAURENT E 41 3:00:10
125 295 HARMELLE  PHILIPPE F 45 3:00:10
126 230 GATIMEL JEAN PIERRE H 5 3:00:10
127 267 GAUGIRAN STEPHANE E 42 3:00:10
128 206 MERLAND STEPHANE E 43 3:00:10
129 237 ATHERFOLD ALLAN H 6 3:00:10
130 397 ROBERT France C 1 3:00:10
131 310 PINOL CHRISTOPHE F 46 3:00:10
132 280 ABBA JEAN CLAUDE G 24 3:00:10
133 281 LACHAISE  CHRISTOPHE F 47 3:00:10
134 318 GAY ROBERT G 25 3:00:10
135 291 SERVAT CEDRIC E 44 3:01:07
136 235 VIAL JEAN SEBASTIEN E 45 3:01:07
137 356 CANIL LUCIO G 26 3:01:07
138 352 MASSOU LAURENT F 48 3:06:21
139 226 DO JEAN MARC G 27 3:08:18
140 244 VAISSETTE  ELIE H 7 3:08:32
141 298 SAJOUS NICOLAS D 11 3:08:48
142 299 TORRESIN  STEPHANE E 46 3:08:48
143 350 MARQUE ERIC E 47 3:08:48
144 274 ROUSSEL FRANCK F 49 3:08:48
145 423 TAUPIAC ELISABETH B 3 3:08:48
146 319 ANDRE PHILIPPE F 50 3:08:48
147 294 LAVERGNE JEAN PAUL F 51 3:08:48
148 300 RUEFF LAURENT F 52 3:08:48
149 203 MARTINEZ JEAN PHILIPPE F 53 3:08:48
150 333 COATANTIEC CLAUDE F 54 3:08:48
151 243 VAISSETTE JEAN MARC F 55 3:08:48
152 406 LAFONT FRANCISCO F 56 3:08:48
153 220 PARPINELLI CHRISTIAN H 8 3:08:48
154 325 DELMAS CHRISTIAN F 57 3:08:48
155 347 BIRIEN GILDAS G 28 3:08:48
156 292 BRUEL HUGUES E 48 3:08:48
157 275 BORDE  JEAN F 58 3:10:16
158 381 BANC NICOLAS E 49 3:10:16
159 339 CALMES LAURENT G 29 3:10:38
160 278 CHEVE PATRICK G 30 3:10:38
161 249 HENRI REMY G 31 3:10:38
162 216 MERIC SEBASTIEN E 50 3:14:17
163 320 BERNARD JEAN MICHEL F 59 3:14:17
164 366 VIGNEAU ELIANE C 2 3:14:17
165 248 OPERTI CHRISTIAN G 32 3:14:17
166 221 BEHAGLE ANDRE H 9 3:15:06
167 257 BRIANTI YANN E 51 3:15:06
168 228 GARCIA PATRICK F 60 3:15:06
169 219 GRIGNON EDITH C 3 3:15:06
170 218 GRIGNON DANIEL G 33 3:15:06
171 335 CHATAIN FRANCIS F 61 3:17:06
172 250 QUESNEL FREDERIC D 12 3:18:11
173 204 PICKERING MARTIN G 34 3:20:06
174 205 PICKERING ANN B 4 3:20:06
175 215 MAILHOL JEROME E 52 3:23:14
176 313 FAISANS SYLVIE B 5 3:26:02
177 393 VEILLET VIRGINIE B 6 3:28:12
178 202 KALASZ ARNAUD E 53 3:28:13
179 307 DEBUCQUET PASCAL E 54 3:29:04
180 334 REBUFFEL PHILIPPE F 62 3:29:05
181 288 BESSON JACQUELINE C 4 3:30:14
182 209 LESPERANCE JACQUES G 35 3:31:20
183 382 CAPELLE GERALD G 36 3:32:27
184 351 THIAULT DOMINIQUE G 37 3:34:12
185 217 LEGRAND FABRICE G 38 3:34:12
186 277 CLARET SYLVAIN H 10 3:34:12
187 302 LUCAS FRANS G 39 3:34:12
188 371 ZELLER DIDIER G 40 3:34:12
189 223 CARCY GILLES F 63 3:34:12
190 388 HAMON SYLVAIN D 13 3:42:12
191 379 CHAUMET LAURENT E 55 3:42:13
192 233 LEGRAND FANNY A 1 3:44:25
193 234 PRE DENIS E 56 3:44:26
194 238 LABRO JEAN LUC F 64 3:54:14
195 212 BARTHE THIERRY G 41 3:58:10
196 265 SERRANI PHILIPPE F 65 4:00:15
197 245 ROQUABERT YVES G 42 4:05:11

Haut 









Haut  
 Privé-site   Auteursrecht-Copyright : klik hier om te lezen !